RH
83 82 78 67 53 42 37 37 35 33 34 36 39 42 43 45 45 43 37 32 31 30 25 25 30 32 32 32 32 32 33 33 34 35 36 38 39 39 39 39 39 39 39 39 40 40 41 42 42 42 42 42 43 44 45 45 45 45 45 45 46 46 46 45 43 40 39 39 39 38 37 36 35 32 30 28 27 27 28 29 30 31 32 33 33
85 81 68 53 42 39 38 36 35 35 38 42 45 44 41 38 36 33 28 25 25 25 26 29 31 32 32 32 33 33 34 35 35 36 36 37 38 39 40 41 41 42 42 42 44 44 45 45 45 45 45 45 45 45 45 44 44 44 43 45 45 46 48 49 47 42 38 36 34 34 34 35 34 33 31 29 27 27 27 28 29 30 30 31 31
80 67 52 42 39 38 37 36 38 41 43 43 40 35 31 28 27 25 24 23 24 26 29 31 32 32 32 32 33 34 35 35 35 35 35 36 38 39 40 41 42 44 45 46 47 48 48 48 49 48 47 47 46 45 45 44 43 43 42 42 43 44 45 46 44 40 36 33 30 29 30 31 31 31 29 29 28 27 27 27 28 29 29 29 30
62 49 42 39 38 38 39 41 42 43 41 36 30 27 26 25 25 25 26 26 27 29 30 31 32 33 32 33 33 34 35 35 35 36 37 38 40 41 42 43 44 45 47 47 48 49 49 49 49 48 48 46 45 45 44 44 42 41 40 39 38 37 36 35 33 31 31 29 28 28 28 28 29 29 28 27 27 27 27 28 28 28 28 28 28
46 41 40 39 40 42 43 43 42 39 34 30 27 27 27 26 27 27 28 29 30 31 31 32 32 32 33 33 33 33 34 35 37 38 40 41 42 44 45 45 47 48 49 49 49 49 49 48 48 48 48 47 46 46 45 44 43 41 38 36 33 31 29 28 27 27 27 27 28 28 28 28 27 28 28 28 28 28 28 28 29 29 29 28 27
42 42 43 44 45 45 44 42 39 34 30 29 29 29 29 29 28 29 29 31 32 32 32 32 32 32 32 32 33 33 35 36 38 39 41 42 42 44 45 46 47 48 50 50 50 50 50 50 50 50 50 50 49 48 46 45 42 39 35 32 30 28 26 26 27 27 27 26 26 26 27 27 28 29 29 31 32 32 32 31 31 31 31 30 28
48 51 51 50 48 46 44 41 37 33 31 32 32 32 32 31 30 30 30 30 30 30 31 30 31 31 32 33 35 37 38 39 39 39 40 42 43 44 45 46 46 47 48 49 49 50 51 51 52 53 53 52 50 46 43 39 35 33 30 29 28 27 27 27 27 28 27 27 27 26 27 28 29 31 32 33 34 36 37 34 32 31 29 28 26
57 57 53 48 46 44 42 39 36 34 34 34 34 34 33 32 31 31 30 31 31 32 32 33 33 34 36 37 38 39 40 41 41 41 41 41 43 44 44 45 44 45 46 47 49 50 51 52 52 52 51 48 44 40 37 34 32 30 29 29 28 28 28 27 28 28 29 29 29 28 28 29 29 30 31 32 32 34 36 35 32 29 27 25 23
54 49 43 41 40 38 37 35 35 35 36 37 37 37 37 36 35 34 35 35 36 36 37 38 39 39 40 40 41 42 42 42 42 41 41 40 41 42 43 45 45 47 47 48 48 48 47 46 44 44 43 41 38 36 35 33 33 33 32 32 32 31 31 30 30 30 30 30 30 28 27 27 27 26 26 27 26 27 28 30 29 26 23 22 21
41 37 35 35 34 34 34 34 36 37 38 38 38 38 37 37 36 37 38 39 41 42 43 44 44 44 44 43 43 43 43 43 44 45 46 46 47 49 50 51 50 50 48 46 44 42 40 38 37 37 37 37 36 36 35 35 35 34 34 34 34 34 32 32 31 30 30 28 27 26 25 24 23 22 22 21 21 20 20 23 23 22 21 19 19
34 33 33 33 32 33 34 34 36 37 37 38 38 39 39 39 41 41 43 44 44 44 43 43 43 43 43 43 44 45 46 48 51 55 58 59 59 58 55 53 49 45 42 40 38 37 36 36 36 36 36 37 38 38 38 38 36 35 34 33 32 31 29 28 28 27 26 26 24 23 22 21 20 19 19 18 17 17 16 17 18 19 19 17 17
34 34 33 33 33 34 36 38 40 41 40 40 40 40 40 40 40 40 41 41 41 42 42 43 44 45 46 47 48 49 49 49 50 51 52 52 50 47 45 42 41 40 39 38 38 38 37 38 38 37 38 37 37 37 37 37 36 35 34 32 30 28 26 24 24 23 22 21 20 20 18 18 17 16 16 16 15 14 14 14 15 16 17 16 15
35 36 37 37 39 40 42 42 41 40 39 38 38 38 38 39 39 40 41 42 43 44 44 44 45 44 44 43 43 42 41 40 39 39 39 39 40 40 41 42 43 44 44 45 44 42 41 39 38 37 36 35 34 33 33 32 32 31 31 30 28 26 24 22 20 19 18 17 16 15 14 14 13 13 12 12 12 11 11 11 12 12 13 13 13
41 42 42 42 43 42 41 40 39 39 39 39 39 39 39 40 39 39 39 38 38 38 38 38 38 38 38 38 38 38 39 39 39 40 41 42 43 44 45 46 47 48 48 49 48 47 45 42 39 37 34 32 31 29 28 26 25 24 24 23 22 20 18 17 15 14 13 12 11 11 10 10 9 9 9 8 8 8 8 7 7 8 8 8 9
44 44 43 42 41 40 40 39 39 38 37 36 36 35 35 35 34 34 34 34 35 36 36 37 38 39 40 40 41 41 41 42 43 44 44 45 45 45 46 46 46 47 47 47 47 46 44 42 39 36 32 30 27 24 22 19 18 16 15 15 14 13 12 11 10 9 9 8 8 8 7 7 7 6 6 6 6 5 5 5 5 5 6 6 6
43 42 41 40 39 38 37 35 34 33 32 32 32 32 33 34 34 35 36 36 36 37 37 38 38 39 39 40 40 40 40 41 41 41 41 41 41 40 39 38 37 37 36 35 34 32 30 28 26 24 22 20 17 16 14 12 11 10 9 9 9 8 8 8 8 7 7 7 7 6 6 6 6 5 5 5 5 5 5 5 5 5 5 5 5
41 39 38 36 35 34 33 33 33 34 34 35 36 37 37 39 39 39 39 39 38 38 37 37 37 37 37 37 36 35 34 32 31 30 28 26 25 24 23 22 20 19 18 17 16 16 15 14 13 12 12 11 10 10 10 9 9 8 8 8 8 8 7 7 7 7 7 6 6 6 5 5 5 5 5 5 4 5 4 4 5 5 5 5 5
36 35 34 33 34 35 36 38 39 39 41 42 42 43 42 42 40 39 38 38 37 37 37 36 35 34 32 30 27 24 21 19 17 16 15 13 13 12 11 11 11 10 10 10 10 10 10 9 9 9 9 9 9 9 9 9 9 8 9 8 8 8 7 7 7 7 7 6 6 6 5 5 5 4 4 4 4 4 5 5 5 5 5 5 6
36 36 38 40 42 44 45 46 46 45 45 44 43 42 41 39 38 38 37 37 36 35 33 31 27 24 21 19 17 15 13 12 12 11 11 10 10 10 9 9 9 9 9 9 9 9 9 9 9 9 9 9 9 9 8 8 8 8 8 8 7 7 6 6 6 6 6 6 5 5 5 5 5 5 4 4 4 4 4 4 4 4 4 5 5
45 47 49 51 51 50 49 47 46 45 44 43 42 42 41 41 41 40 39 37 33 28 24 20 17 15 14 13 12 12 12 11 11 10 10 10 10 9 9 9 9 9 8 8 8 8 8 8 8 8 8 8 8 8 8 7 7 7 7 7 7 6 6 6 6 6 6 5 5 5 5 5 4 4 4 4 4 3 3 3 3 3 3 3 4
53 54 54 53 50 48 46 45 45 45 44 44 44 44 44 43 41 38 34 29 24 20 17 15 14 13 13 13 12 12 12 11 10 10 10 9 9 8 8 8 8 8 7 7 7 7 7 7 7 7 7 7 7 7 7 7 7 7 7 6 6 6 6 6 5 5 5 5 5 4 4 4 4 3 3 3 3 3 3 3 3 3 3 3 3
52 51 50 48 48 47 48 48 47 47 47 46 46 44 42 38 32 27 23 19 17 15 14 14 14 13 13 13 12 11 11 10 9 9 8 8 8 7 7 7 7 7 7 6 6 6 6 6 6 6 6 6 6 5 5 5 5 5 5 5 5 5 4 4 4 4 4 4 4 4 3 3 3 3 3 3 3 3 3 3 2 3 2 3 3
48 49 50 50 50 50 50 49 48 48 47 44 41 36 30 24 20 17 16 15 15 14 14 13 12 12 12 11 10 9 9 8 8 8 8 8 8 7 7 7 6 6 6 5 5 5 5 5 4 5 5 4 4 4 4 4 4 4 4 4 4 4 3 4 3 3 3 3 3 3 3 3 3 3 3 3 3 3 3 2 3 3 2 2 2
53 54 53 52 51 50 49 48 47 44 40 35 29 23 19 17 15 15 15 14 14 13 12 12 11 11 10 9 9 8 8 8 8 8 7 7 7 6 6 5 5 5 4 4 4 4 4 4 4 4 4 4 4 4 4 4 4 4 4 4 3 3 3 3 3 3 3 3 3 3 3 3 3 3 3 3 3 3 3 3 3 3 3 3 2
57 54 52 51 50 49 47 44 39 33 27 22 19 17 16 15 15 14 14 13 13 13 12 11 11 10 10 10 9 9 8 7 7 6 6 5 5 5 4 4 4 4 4 4 4 4 4 4 4 4 4 4 4 4 4 4 4 4 4 4 3 3 4 3 3 3 3 3 3 3 3 3 3 3 3 3 3 3 3 3 3 3 3 3 2
55 53 52 50 48 44 38 32 25 21 18 17 16 16 15 15 14 14 14 14 13 12 11 11 11 10 10 9 8 7 6 6 5 5 5 5 4 4 4 4 4 4 4 4 4 4 4 4 4 4 4 4 4 4 4 4 4 4 4 4 4 4 4 4 4 3 3 3 3 3 3 3 3 3 3 2 2 2 2 2 2 2 2 2 2
53 51 48 43 37 31 25 21 18 17 17 16 16 15 15 15 15 14 13 13 12 12 11 11 10 9 8 7 6 6 5 5 5 5 5 5 4 5 4 4 4 4 4 4 4 4 4 4 4 4 4 4 3 3 3 3 3 3 3 3 3 3 3 3 3 3 3 3 3 3 3 2 2 2 2 2 2 2 2 2 2 2 2 2 2
45 40 34 28 23 20 18 17 17 16 16 16 16 16 15 15 14 13 13 12 12 11 10 9 8 7 6 6 6 6 5 5 5 5 5 5 5 5 5 4 4 4 4 4 4 3 3 3 3 3 3 3 3 3 3 3 2 2 3 3 3 3 3 3 3 2 2 2 2 2 2 2 2 2 2 2 2 2 2 2 2 2 2 2 2
29 24 20 19 17 17 16 16 16 16 16 16 16 15 14 13 13 12 12 11 10 9 8 7 7 6 6 6 6 6 5 5 5 5 5 5 5 5 5 4 4 4 3 3 3 3 3 3 2 2 2 2 3 2 2 2 2 2 2 2 2 2 2 2 2 2 2 2 2 2 2 2 2 2 2 2 2 2 2 2 2 2 2 2 2
19 17 17 16 16 15 15 15 16 16 16 15 14 13 13 12 12 11 10 10 9 8 8 7 7 6 6 6 6 5 6 6 6 6 5 5 5 4 4 3 3 3 3 3 3 3 2 3 3 2 3 3 2 3 3 2 2 2 2 2 2 2 2 2 2 2 2 2 2 2 2 2 2 2 2 2 2 2 2 2 2 2 2 2 2
17 16 16 16 15 15 16 15 15 14 14 13 13 12 12 11 10 10 10 9 9 8 8 7 6 7 6 6 6 6 6 6 5 5 4 4 3 3 3 3 3 3 3 3 3 3 2 3 3 3 3 3 3 3 2 2 2 2 2 3 2 2 2 2 2 2 2 2 2 2 2 2 2 2 2 2 2 2 2 2 2 2 2 2 2
16 16 16 16 16 15 14 14 13 13 13 13 12 11 11 10 10 10 10 9 9 8 7 6 6 6 6 6 6 6 6 5 4 4 3 3 3 3 3 3 3 3 3 3 3 3 3 3 3 3 3 3 3 3 2 2 2 2 2 2 2 2 2 2 2 2 2 2 2 2 2 2 2 2 2 2 2 2 2 2 2 2 2 2 2
17 17 16 15 14 14 13 13 13 12 11 11 11 11 11 11 11 10 10 9 8 7 7 7 7 6 6 6 6 5 4 4 3 3 3 3 3 3 3 3 3 3 3 3 3 3 3 3 3 3 3 3 3 3 3 3 2 2 3 2 3 2 2 2 2 2 2 2 2 2 2 2 2 2 2 2 2 2 2 2 2 2 2 2 2
16 15 14 14 13 12 12 12 12 12 12 12 12 12 11 11 11 10 10 9 8 7 7 7 7 6 6 5 4 4 4 3 3 3 3 3 3 3 3 3 3 3 3 3 3 3 3 3 3 4 4 4 4 3 3 3 2 3 3 2 3 2 2 2 2 2 2 2 2 2 2 2 2 2 2 2 2 2 2 2 2 2 2 2 2
14 13 13 12 12 12 12 12 13 13 13 13 13 12 12 12 11 10 9 8 7 7 7 7 6 5 5 4 4 4 3 3 3 3 3 3 3 3 3 3 3 3 3 3 3 3 3 3 3 4 4 4 4 3 3 3 3 3 3 3 3 2 2 2 2 2 2 2 2 2 2 2 2 2 2 2 2 2 2 2 3 2 2 2 2
12 12 12 12 13 13 13 13 13 13 13 14 14 13 13 12 10 9 8 8 8 7 6 5 4 4 4 4 4 4 4 4 4 4 4 3 3 3 3 3 3 3 3 3 3 3 3 3 3 3 4 4 4 4 3 3 3 3 3 3 3 2 2 2 2 2 2 2 2 2 2 2 2 2 2 2 2 3 2 2 2 2 2 2 2
12 12 13 14 14 14 13 12 12 13 13 14 14 13 12 11 9 8 8 8 7 6 5 4 4 4 4 4 4 4 4 4 4 4 4 4 3 3 3 3 3 3 3 3 3 3 3 3 3 3 3 4 4 4 3 3 3 3 3 3 3 2 2 2 2 3 3 2 2 3 2 3 3 3 3 3 3 3 2 3 3 2 3 3 2
14 14 15 14 13 12 11 11 12 12 12 12 12 10 10 9 8 8 8 8 6 5 4 4 4 4 4 4 4 4 4 4 4 4 4 4 4 4 3 3 3 3 3 3 3 3 3 3 3 3 3 3 4 3 3 3 3 3 3 3 3 2 2 2 3 3 3 3 2 3 3 3 3 3 3 3 3 3 3 3 3 3 3 3 2
14 14 13 13 12 12 12 11 12 11 11 10 9 9 8 8 8 8 7 6 5 4 5 5 5 5 4 4 4 4 4 4 4 4 4 4 4 3 3 3 3 3 3 3 3 3 3 3 3 3 3 3 4 4 3 3 3 3 3 3 3 3 2 3 3 3 3 3 3 3 3 3 3 3 3 3 3 3 3 3 3 3 3 3 3
12 12 12 12 13 14 14 12 11 10 9 9 9 9 8 8 7 6 5 5 5 5 5 5 4 4 4 4 4 4 4 4 4 4 3 3 3 3 3 3 3 3 3 3 3 3 3 3 3 3 3 3 4 4 3 3 3 3 3 3 3 3 3 3 3 3 3 3 3 3 3 3 3 3 3 3 3 3 3 3 3 3 3 3 3
11 11 12 13 13 13 13 11 10 9 9 9 9 9 8 7 6 5 5 5 5 5 5 5 4 4 4 4 4 3 3 3 3 3 3 3 3 3 3 3 3 3 3 3 3 3 3 3 3 3 3 3 4 4 3 3 4 3 3 3 3 3 3 3 3 3 3 3 3 3 3 3 3 3 3 3 3 3 3 3 3 3 3 3 3
12 12 13 13 13 12 10 10 9 9 9 9 9 8 7 6 5 5 6 6 5 5 5 4 4 4 4 4 3 3 3 3 3 3 3 3 3 3 3 3 3 3 3 3 3 3 3 3 3 4 4 3 4 4 4 4 4 3 3 3 3 3 3 3 3 3 3 4 3 3 3 3 3 3 3 3 3 3 3 3 3 3 3 3 3
14 14 13 13 12 11 10 9 9 9 9 8 8 7 6 6 6 6 6 6 5 5 5 4 4 4 4 4 3 3 3 3 3 3 3 3 3 3 3 3 3 3 3 3 3 3 3 3 3 4 4 4 4 4 4 4 4 4 4 3 3 4 4 3 4 4 4 4 3 3 4 3 4 3 3 3 3 3 4 3 3 3 3 3 3
15 14 13 12 11 11 10 10 9 9 8 7 6 6 6 6 6 6 6 6 5 5 5 4 4 4 4 3 3 3 3 2 3 3 3 3 3 3 3 3 3 3 3 3 3 3 3 3 3 4 4 4 4 4 4 4 4 4 4 4 4 4 4 4 4 4 4 4 4 4 4 3 4 4 3 4 4 4 4 4 3 4 4 4 4
14 12 11 11 11 11 11 10 9 8 7 6 6 6 6 6 6 6 6 6 5 5 5 4 4 4 4 4 3 3 3 3 3 3 3 3 3 3 3 3 3 3 3 3 3 3 3 3 3 4 4 4 4 4 4 4 5 5 5 4 4 4 4 4 4 4 4 4 4 4 4 4 4 4 4 4 4 4 4 4 4 4 4 4 4
12 11 11 11 11 11 10 9 8 7 6 6 6 6 6 6 6 6 6 6 5 5 5 4 4 4 4 3 3 3 3 3 3 3 3 3 3 3 3 3 3 3 3 3 3 3 3 4 4 4 4 4 4 4 4 5 5 5 5 5 4 5 5 5 5 5 4 4 4 4 4 4 4 4 4 4 4 4 4 4 4 4 4 4 4
11 11 11 11 11 10 9 8 7 6 6 7 7 6 6 6 6 6 6 6 5 5 5 5 4 4 4 3 3 3 3 3 2 2 3 3 3 3 3 3 3 3 3 3 3 3 3 3 4 4 4 4 4 4 4 5 5 5 5 5 5 5 5 5 5 5 5 5 5 4 4 4 4 4 4 4 4 4 4 4 4 4 4 4 4
11 11 11 10 10 9 8 7 7 7 7 7 6 6 6 6 6 6 6 6 6 5 5 4 4 4 4 3 3 3 3 3 3 3 3 4 4 3 2 3 3 3 3 3 3 3 3 3 4 4 4 4 4 4 4 5 5 5 5 5 5 5 5 6 5 5 5 5 5 5 4 4 5 5 4 4 4 4 4 4 4 4 4 4 4
11 10 10 9 8 7 7 7 7 7 7 7 6 6 6 6 6 6 6 6 6 5 5 4 4 4 4 4 3 3 3 3 3 3 2 3 4 3 2 3 3 3 3 3 3 3 3 3 3 4 4 4 4 4 5 5 5 5 5 5 5 5 6 6 6 5 5 5 5 5 5 5 5 5 4 5 5 4 4 4 4 4 4 4 4
9 9 8 7 7 7 7 8 7 7 7 6 6 6 6 6 6 6 6 6 5 5 5 4 4 4 4 4 4 3 3 3 3 3 3 3 4 4 3 2 3 3 3 3 3 3 3 3 4 4 4 4 5 5 5 5 5 5 6 5 6 6 6 6 6 5 5 5 5 5 5 5 5 5 5 5 5 4 4 4 4 4 4 4 4
8 7 7 8 8 8 8 7 7 7 7 6 6 6 6 6 6 6 5 5 5 5 5 5 4 4 4 4 4 4 4 4 3 3 3 3 3 4 4 3 3 3 3 3 3 3 3 3 3 4 4 4 5 5 5 5 5 5 6 6 6 6 6 6 6 6 5 6 6 6 6 6 5 5 5 5 5 5 5 4 4 5 4 4 4
Wind_Speed
86 86 87 88 87 85 83 81 80 78 76 76 75 72 69 65 64 64 65 61 56 55 56 56 58 59 61 62 63 64 64 64 65 65 66 67 69 70 71 71 72 73 74 74 76 77 77 79 79 80 80 80 81 82 83 84 84 85 85 86 87 88 89 91 93 93 93 93 94 94 94 95 96 96 96 96 97 97 97 97 98 100 101 101 102
87 88 88 87 85 83 81 80 78 76 75 73 71 68 64 61 61 61 60 57 53 53 55 57 60 61 63 64 65 65 66 66 67 68 69 70 72 73 74 75 76 77 78 79 80 81 82 83 84 84 85 85 85 86 87 88 89 89 90 90 91 92 93 95 97 97 96 96 97 96 96 98 99 99 99 100 100 100 100 101 102 103 104 105 106
88 88 87 85 82 81 79 77 76 74 72 68 65 62 60 58 57 57 56 55 54 54 57 60 62 64 65 66 66 67 68 70 70 72 73 74 75 76 77 78 79 80 82 83 84 85 86 87 88 89 89 90 90 91 92 92 93 94 94 95 95 96 97 98 100 100 99 99 99 98 98 99 100 101 102 102 103 103 104 105 105 106 107 109 110
88 86 84 82 80 78 76 75 73 71 67 63 60 59 57 56 56 56 56 56 57 59 61 63 64 66 67 68 69 70 71 73 74 76 77 77 79 80 81 82 83 84 86 87 88 89 90 91 92 93 94 95 95 96 96 97 98 99 99 99 99 99 99 99 100 101 101 101 100 99 99 100 100 103 105 105 105 106 107 108 109 110 111 112 113
85 83 80 79 77 76 74 73 70 66 62 59 58 58 58 58 58 59 59 60 61 63 64 66 67 68 69 70 72 73 74 76 78 79 81 82 83 84 85 86 87 88 90 91 92 93 94 95 96 97 99 100 100 101 101 102 103 103 103 102 102 101 101 100 101 102 102 102 102 101 101 102 102 104 107 107 109 110 110 111 112 113 115 116 117
82 80 78 77 76 74 71 68 65 62 60 59 59 60 61 62 63 63 64 65 66 67 68 69 70 71 73 74 76 77 79 80 82 83 84 86 87 88 89 91 91 92 93 95 96 98 99 100 101 102 103 105 106 106 106 107 107 107 106 105 105 104 103 102 103 104 105 105 105 105 105 106 106 107 109 111 112 114 115 116 116 118 119 120 121
79 78 76 75 72 70 67 64 62 61 60 61 62 63 65 66 67 67 68 69 70 71 72 73 74 76 77 79 80 82 83 85 87 88 89 90 91 93 94 95 95 96 97 99 101 102 103 104 105 106 108 109 110 110 110 110 109 108 108 107 106 106 106 105 106 108 109 110 111 111 111 111 112 113 114 115 116 117 119 121 121 122 123 124 125
77 76 74 71 68 66 64 63 62 62 62 63 65 67 68 70 70 71 72 73 74 76 77 79 80 81 82 83 85 87 88 90 92 93 94 94 95 96 98 99 100 101 102 103 105 106 107 108 109 110 112 113 113 112 112 111 111 110 110 109 109 110 110 110 110 112 113 114 116 117 117 118 118 119 119 120 121 120 122 125 126 127 128 128 129
74 73 70 67 66 65 64 64 64 64 65 67 69 70 72 73 73 74 76 77 79 81 83 84 86 87 87 89 90 92 93 94 96 98 99 100 100 101 102 103 104 106 107 108 109 110 111 111 112 113 114 114 115 114 114 114 114 114 114 114 115 115 116 116 116 117 118 119 120 122 122 123 123 124 124 125 126 125 124 126 129 131 131 131 131
70 69 68 67 67 66 67 67 68 69 70 71 73 74 76 77 77 78 80 82 84 86 88 89 91 92 93 95 96 97 98 100 101 102 104 106 106 107 108 109 110 111 112 112 113 113 113 113 114 114 115 116 116 117 117 118 118 119 119 119 120 120 120 121 121 121 122 123 124 125 126 127 127 128 128 129 129 129 127 127 129 133 134 133 132
68 68 69 69 69 70 71 72 73 74 75 77 78 79 80 81 82 83 85 87 89 91 92 94 95 97 98 100 101 102 103 104 105 106 108 110 111 112 113 114 114 115 115 115 115 115 115 115 116 116 117 118 120 121 121 122 123 123 123 123 123 124 124 124 124 125 125 126 127 128 128 129 130 130 130 131 131 130 128 127 128 131 134 134 133
69 71 72 73 73 74 76 77 79 80 81 82 83 85 86 87 87 88 90 92 94 95 97 98 99 101 102 104 105 106 107 107 108 109 110 112 113 113 114 114 115 116 117 118 118 119 119 119 120 121 122 123 123 124 125 125 126 126 126 127 127 127 127 127 127 127 128 129 129 130 130 130 130 130 131 131 131 130 128 127 127 129 132 133 133
73 74 76 77 78 79 81 83 84 85 86 88 89 90 91 92 93 94 96 97 98 100 100 101 102 104 105 106 106 107 108 109 109 109 110 112 113 114 115 116 117 119 120 122 123 125 125 125 125 126 126 126 127 127 127 127 127 127 128 128 128 128 129 129 128 129 129 130 130 130 130 130 129 130 130 130 129 128 127 126 125 127 130 130 131
77 78 80 81 83 85 87 88 90 91 92 94 95 96 96 98 98 99 99 100 100 101 102 103 104 105 106 107 108 108 109 110 112 113 114 115 116 118 119 120 122 123 125 126 128 129 130 130 130 130 129 129 129 129 128 128 128 127 127 127 128 129 129 129 129 129 130 130 131 130 130 129 128 128 128 128 127 126 124 122 122 123 124 125 126
82 83 84 86 88 90 91 93 95 96 97 97 98 98 98 99 99 100 100 101 102 103 104 105 106 108 110 111 112 113 114 115 117 118 119 120 122 123 124 125 126 127 127 128 130 131 132 132 132 131 131 131 130 130 129 128 128 127 126 125 126 127 128 128 128 128 128 128 129 128 128 127 125 125 124 124 123 122 119 117 117 117 117 118 119
86 87 89 91 92 94 95 96 97 97 97 98 98 99 99 100 102 103 104 105 107 108 109 110 112 113 115 116 118 119 119 120 120 121 122 123 123 124 124 125 125 126 126 127 128 129 129 129 129 129 129 129 129 128 128 127 126 125 124 123 123 124 125 125 125 125 125 125 125 125 124 123 122 121 120 119 118 117 114 113 112 112 111 112 114
91 92 93 94 95 95 96 97 97 98 99 100 102 104 105 106 108 109 111 112 113 114 115 116 116 117 118 119 119 119 119 119 119 119 119 119 120 120 120 120 120 121 121 121 122 123 123 124 124 124 124 124 124 124 124 124 123 122 121 121 121 122 122 122 122 122 122 122 122 121 120 119 117 117 116 115 113 111 110 108 108 107 107 108 110
95 95 95 95 96 97 98 100 101 103 105 106 108 110 111 113 114 114 115 116 117 118 119 119 119 119 118 118 118 117 117 116 115 115 114 114 115 115 115 115 115 115 116 116 116 117 118 119 119 119 119 120 120 120 120 120 120 119 119 119 120 120 120 119 118 118 118 119 118 118 117 115 114 113 111 110 108 106 104 102 101 101 102 102 104
96 96 97 99 100 102 104 105 107 109 110 112 113 114 116 117 118 119 119 120 120 120 120 119 118 117 116 116 115 115 114 113 112 112 111 111 111 111 111 111 111 111 112 112 112 113 113 114 114 115 115 116 116 116 117 117 116 116 116 117 117 118 118 116 115 114 114 115 115 113 112 111 110 109 107 104 102 99 97 96 94 94 95 96 98
98 100 102 104 106 107 109 110 112 113 114 116 117 119 121 122 123 124 124 124 123 121 120 118 116 115 114 113 113 112 112 111 111 110 110 110 109 109 109 109 109 109 109 108 109 109 109 109 110 110 111 112 113 113 113 113 113 113 113 114 115 115 115 114 113 111 110 110 110 109 107 106 105 104 102 99 96 94 92 90 89 89 90 91 93
102 104 106 108 110 111 113 114 116 117 119 121 123 124 126 127 127 126 125 124 122 121 119 118 116 115 114 113 113 112 111 110 109 108 107 107 107 106 106 105 105 105 105 105 105 105 105 105 105 106 107 107 108 109 109 109 109 109 109 110 111 112 111 110 110 109 108 106 105 104 103 103 102 100 98 96 93 91 89 87 87 87 87 87 90
106 108 110 111 113 115 116 118 120 122 124 126 127 128 128 127 126 125 123 122 120 119 118 117 116 115 114 112 111 110 109 108 107 106 105 105 104 104 103 103 102 103 102 102 101 101 101 101 101 102 103 103 104 105 105 105 105 105 105 107 108 108 108 107 107 106 105 103 101 101 100 100 99 96 94 93 91 90 88 86 85 86 85 85 87
109 111 113 115 117 119 121 123 125 126 127 128 128 127 126 125 123 122 121 119 118 117 116 114 113 111 110 109 108 107 106 105 105 104 104 104 104 104 103 102 102 102 101 101 100 99 99 99 99 99 100 101 102 102 102 102 102 101 102 104 105 105 104 104 103 103 101 100 99 98 97 97 95 93 91 90 89 88 86 85 84 84 84 84 85
114 116 118 120 122 124 126 127 128 129 128 128 127 125 124 122 121 120 119 117 116 114 112 111 109 109 108 108 107 106 106 105 105 104 103 103 102 102 102 101 101 100 99 99 98 97 96 96 97 97 98 99 99 100 100 100 99 99 100 101 102 102 101 100 100 99 98 97 96 95 94 93 91 89 87 87 85 85 84 82 83 83 83 83 84
118 121 123 125 127 128 129 129 128 127 126 125 123 122 121 120 119 117 116 114 113 112 111 110 110 110 110 109 108 107 105 104 103 102 101 100 99 99 98 98 97 97 96 95 94 93 92 93 93 94 95 96 96 96 96 96 95 95 96 97 98 97 97 96 96 95 95 94 93 91 90 89 86 84 83 83 81 81 80 80 80 81 81 82 82
123 125 126 127 128 128 127 126 125 123 122 121 120 119 118 117 115 114 113 112 112 112 112 112 111 110 109 108 106 104 103 102 100 99 98 97 97 96 95 95 94 93 92 91 89 88 88 88 89 91 91 91 91 91 91 91 90 89 90 91 92 92 92 91 91 92 91 91 89 87 86 84 82 80 80 79 78 77 76 76 77 78 78 79 80
126 127 127 127 126 125 124 123 121 120 119 118 117 116 115 114 113 113 112 112 112 112 112 110 109 108 106 104 103 102 101 99 98 97 96 96 95 94 94 93 92 90 89 88 87 85 84 84 85 87 87 87 87 87 87 86 85 85 85 86 86 86 87 87 87 87 87 86 85 83 81 80 78 76 76 75 74 73 72 73 74 75 75 76 77
125 124 124 123 122 121 120 119 118 117 116 115 114 114 113 112 112 112 112 111 111 110 109 108 106 105 103 102 101 100 99 98 97 96 95 94 94 93 92 91 90 89 88 86 85 83 82 82 83 83 83 83 84 84 84 83 81 80 80 80 80 81 82 83 82 82 82 82 80 78 76 75 73 72 71 70 69 69 68 69 70 71 72 74 76
121 121 120 119 119 118 117 116 115 114 113 113 112 112 112 112 111 110 110 109 109 108 107 106 105 103 102 101 100 99 98 97 96 95 94 92 92 91 90 89 88 87 86 85 84 83 81 80 80 80 80 80 80 81 81 80 78 76 75 74 75 76 77 78 78 78 78 76 74 72 71 69 68 67 67 66 65 65 65 66 68 69 71 73 74
118 118 117 116 116 115 113 112 111 111 110 111 111 111 110 109 108 108 107 107 107 107 106 105 103 102 100 99 98 97 96 95 93 91 90 90 89 88 88 87 86 85 84 83 82 81 79 78 77 77 77 77 77 77 78 77 76 73 71 70 71 73 73 73 73 74 73 71 69 68 66 64 64 63 62 62 61 62 63 64 66 67 68 70 71
115 114 113 112 111 110 109 109 109 109 109 109 109 108 108 107 106 106 106 107 107 106 105 103 102 100 99 98 96 94 93 91 90 88 87 87 86 85 85 84 83 82 81 80 79 78 77 75 74 74 74 74 74 75 75 74 72 70 68 67 69 71 70 70 70 70 68 66 64 63 62 60 60 59 58 58 58 59 61 63 64 65 66 69 71
110 109 109 108 108 107 107 107 107 107 106 106 106 106 105 105 105 105 106 106 105 104 102 101 100 99 98 95 93 92 90 89 88 87 86 85 84 82 81 79 78 78 77 76 76 75 74 73 71 70 70 71 72 73 72 71 69 67 66 65 67 68 68 67 67 65 63 62 61 60 58 57 56 55 55 55 56 57 59 60 61 63 66 68 70
106 105 106 105 105 105 104 104 104 104 104 104 104 104 104 104 104 104 105 105 104 103 101 100 99 98 95 93 91 90 89 88 87 86 84 83 81 79 76 74 73 73 73 73 73 72 71 70 68 68 68 68 69 70 70 68 66 65 65 64 63 66 67 65 63 61 60 59 58 56 55 54 53 53 53 54 54 55 56 58 59 61 64 66 68
103 103 103 103 103 102 101 101 102 102 102 103 104 104 104 104 104 104 104 104 103 102 101 100 98 96 93 91 90 89 88 86 85 83 82 80 78 75 73 71 69 69 69 69 69 69 68 67 66 65 65 65 67 67 66 65 63 63 63 61 61 64 65 62 59 58 57 57 55 53 52 51 51 51 52 52 52 53 54 56 58 60 62 64 66
101 101 100 100 100 99 100 100 101 102 102 103 104 104 104 104 104 104 103 103 102 100 98 96 94 93 91 89 88 86 85 83 81 80 78 77 75 73 71 69 67 67 66 66 66 66 65 65 64 63 63 63 64 64 63 62 61 61 60 59 59 63 63 59 56 55 55 54 53 52 51 50 50 50 50 50 50 52 53 56 58 60 62 63 65
98 98 98 98 99 99 100 100 101 102 102 102 103 103 103 103 103 103 102 100 98 96 94 92 91 90 89 87 85 82 81 79 78 76 75 74 73 71 69 67 66 65 65 64 64 63 63 62 62 62 61 61 62 61 60 59 59 58 58 57 58 60 60 55 53 53 54 53 51 50 49 48 48 48 48 49 50 51 54 56 58 60 61 62 64
97 98 99 99 100 100 100 100 101 101 101 101 102 102 102 102 102 101 99 97 95 93 91 90 89 87 85 83 81 79 77 76 75 74 73 72 71 69 68 66 64 63 63 62 61 61 60 60 60 60 59 59 60 58 57 57 57 56 55 56 56 58 56 52 50 52 53 51 49 49 48 47 47 47 47 48 50 52 54 56 57 59 60 62 63
98 99 99 100 100 100 100 99 99 99 99 100 100 100 100 99 98 97 96 94 93 92 90 88 86 85 82 80 78 76 74 73 72 71 71 69 68 67 65 63 62 61 62 61 59 59 58 57 56 57 57 57 57 56 55 56 55 54 53 54 54 55 53 49 48 50 52 50 48 48 47 46 46 46 47 49 50 52 54 55 56 58 60 61 62
98 98 98 98 98 98 98 98 97 97 97 97 98 98 97 96 95 94 93 93 92 90 88 86 84 82 80 78 76 74 72 70 69 69 68 66 65 64 63 61 59 59 59 59 58 56 56 55 53 54 55 55 55 54 53 53 53 52 51 51 52 52 50 47 46 49 51 49 47 47 46 45 45 46 47 49 51 52 54 54 55 57 59 61 61
96 96 96 96 97 97 97 97 96 96 95 96 96 96 95 94 92 92 92 91 89 87 85 83 82 80 78 76 74 71 69 67 66 66 65 64 62 62 60 58 57 57 57 57 56 54 54 53 51 52 52 52 52 52 51 51 51 50 49 50 51 50 48 46 45 47 49 48 45 45 45 44 45 47 48 49 50 52 52 53 55 57 58 58 58
94 94 94 95 95 96 96 96 95 95 95 95 95 94 93 92 91 90 90 88 86 84 82 81 80 78 76 75 72 69 67 65 63 63 62 62 61 59 57 56 56 56 55 55 54 52 52 50 49 50 50 50 50 50 49 49 49 48 47 48 49 47 46 45 44 45 47 46 44 44 44 44 45 47 48 49 50 51 51 53 54 55 55 55 56
93 93 93 93 94 95 95 95 95 94 94 93 93 92 92 91 89 88 87 85 84 82 81 80 78 77 76 74 72 69 66 63 61 60 60 60 59 57 54 53 53 54 53 52 52 51 49 48 48 48 48 48 49 48 47 47 47 45 45 46 46 44 44 44 43 43 45 44 44 44 44 45 46 47 48 48 49 49 50 52 52 52 53 54 57
92 92 92 92 93 93 94 94 94 93 92 91 91 91 90 88 86 85 84 83 82 81 80 78 77 76 75 73 71 69 65 62 60 59 58 57 58 56 53 50 51 51 50 50 49 49 48 46 46 46 46 47 47 46 45 45 44 43 42 43 43 42 43 43 41 41 43 44 44 44 44 45 46 47 47 47 48 48 50 50 50 51 53 55 57
91 91 91 91 92 92 93 93 92 91 90 90 89 88 87 85 84 82 82 82 81 80 79 78 76 75 74 73 71 69 66 62 59 58 57 56 57 55 51 49 49 49 48 48 47 46 46 45 44 44 45 45 45 44 43 42 41 41 41 41 41 41 41 41 40 39 42 44 44 43 44 45 46 46 46 46 47 47 48 49 49 51 53 55 56
90 90 90 90 91 91 91 91 91 90 89 88 87 85 84 83 82 81 80 80 80 79 78 77 75 74 73 72 71 69 66 63 59 57 55 55 56 54 50 48 47 46 46 46 45 44 43 43 43 43 43 43 43 42 41 40 39 39 40 40 40 40 39 39 38 39 41 44 44 43 44 44 45 45 45 45 46 47 48 49 51 53 54 55 56
89 89 89 89 89 90 89 89 89 88 87 86 85 84 82 80 79 79 78 78 77 77 77 75 74 73 72 70 69 68 66 63 59 56 53 53 54 53 49 47 46 45 44 44 43 42 42 42 41 41 41 41 41 40 39 39 38 38 39 38 38 38 38 38 38 39 41 42 43 43 43 43 44 45 45 46 47 48 49 51 53 54 55 56 57
88 88 88 87 87 87 87 87 86 86 85 84 83 82 81 79 78 77 76 76 76 75 75 74 73 71 70 69 68 66 65 62 59 55 52 51 53 52 47 46 46 44 42 42 41 40 41 41 40 40 40 39 39 39 38 38 38 38 37 37 37 37 36 37 38 39 40 42 43 43 43 43 44 44 45 45 47 49 50 52 53 54 55 56 57
86 86 86 85 85 85 85 85 84 83 82 82 81 80 79 78 77 76 75 74 74 74 74 73 71 69 68 67 65 64 63 61 58 54 50 49 52 52 46 43 43 43 41 41 40 39 40 40 39 39 39 39 38 38 37 37 37 37 36 36 36 36 35 36 37 39 39 41 43 43 42 42 43 44 45 46 47 50 51 52 52 53 54 55 55
85 84 84 84 84 83 83 82 81 81 80 79 79 79 78 76 75 74 73 72 72 72 72 71 69 68 66 65 64 62 60 58 56 54 49 44 46 51 48 42 40 41 40 39 39 39 39 39 39 38 38 38 37 37 37 36 36 36 36 36 36 35 35 36 37 38 39 40 42 42 42 42 43 45 45 46 48 50 51 51 51 52 53 53 53
83 83 83 82 82 81 81 80 80 79 78 78 78 77 76 75 74 73 71 70 68 68 69 68 67 65 64 63 62 60 59 56 54 52 50 43 40 44 48 44 39 38 39 39 38 38 37 37 37 37 37 37 36 36 36 35 35 35 35 35 35 34 34 36 37 38 38 40 41 41 41 41 42 44 45 46 48 50 51 51 51 51 51 52 51
81 81 80 80 80 80 79 79 79 78 78 77 77 76 75 74 73 72 70 68 66 65 65 65 64 63 61 60 59 58 57 55 52 50 49 45 39 38 43 45 41 37 37 37 37 37 36 36 36 36 36 36 36 36 35 35 35 35 35 34 34 34 35 36 36 37 38 39 40 40 40 40 41 43 45 46 48 49 49 49 49 49 49 49 49
Wind_Direction
297 297 297 296 296 295 294 293 293 292 292 291 291 291 290 288 285 282 282 282 280 274 271 270 270 272 272 271 271 271 272 271 271 270 270 270 271 271 272 272 272 272 272 272 272 272 272 272 272 271 271 271 270 270 270 270 269 269 268 268 268 268 268 268 267 266 265 265 264 263 262 262 261 260 260 259 258 257 256 255 254 254 253 253 252
297 297 296 295 295 294 293 292 292 291 291 291 291 290 289 286 283 282 282 281 277 273 272 272 273 273 273 272 272 272 272 271 271 270 270 271 271 272 273 273 273 273 273 273 273 273 273 273 273 272 272 272 271 271 271 270 270 269 269 269 269 268 268 268 268 267 265 264 263 262 262 261 261 260 259 259 258 257 256 255 255 254 254 253 252
296 296 295 294 293 293 292 291 291 291 291 291 290 289 288 286 283 282 281 280 277 274 273 273 273 273 273 272 272 272 272 272 271 271 271 272 272 272 272 273 273 273 273 273 273 273 273 273 273 273 272 272 271 271 271 270 270 270 269 269 269 268 268 268 267 267 266 264 262 261 261 261 261 260 259 258 258 258 257 256 255 255 254 253 252
296 295 294 293 292 291 291 291 291 292 291 290 289 289 287 285 283 281 280 279 278 276 275 274 273 273 273 272 272 272 272 273 273 273 273 273 273 273 273 273 273 273 273 273 273 273 273 273 273 273 273 272 272 272 272 272 271 271 270 270 269 269 268 267 266 266 265 264 262 261 260 260 260 260 260 259 258 257 257 257 256 256 255 254 253
295 294 293 292 292 292 292 292 293 292 291 290 289 288 287 285 283 282 280 279 278 277 275 275 274 273 273 272 272 272 272 272 272 273 273 273 273 273 273 273 273 273 273 273 273 273 273 273 274 274 274 274 274 274 274 274 273 273 272 271 270 269 268 267 267 266 264 263 262 261 260 259 259 259 259 260 259 258 257 257 257 257 256 255 254
294 294 293 292 293 293 293 293 293 291 290 289 288 287 286 285 284 282 281 280 279 278 277 276 275 274 274 273 273 273 273 273 273 273 273 273 273 273 273 272 272 272 273 273 273 273 274 274 274 275 275 275 275 275 275 274 274 273 273 272 271 270 268 267 267 266 265 264 263 262 260 260 259 258 258 259 259 259 258 257 257 256 256 255 254
294 293 293 293 294 294 294 293 291 289 288 287 287 286 285 284 283 282 281 280 280 279 278 277 276 275 275 275 275 275 275 275 275 274 274 274 274 274 274 274 273 273 273 273 273 274 274 274 275 275 275 275 275 275 275 274 273 273 272 271 270 269 268 267 266 266 265 265 264 263 261 261 259 259 258 258 258 259 259 259 257 256 255 255 254
294 294 294 294 294 293 292 290 289 287 286 286 285 285 284 283 283 282 282 282 281 280 279 279 278 277 277 277 276 276 276 276 276 276 276 275 275 275 275 275 275 275 275 275 275 275 275 275 276 276 276 276 276 276 275 275 274 273 272 271 270 269 268 267 266 266 266 265 264 263 262 261 260 259 258 258 257 257 257 258 258 257 256 255 254
293 294 294 294 292 291 290 289 288 287 286 285 284 284 283 283 283 283 283 283 282 282 281 281 281 280 280 279 279 279 279 278 278 278 278 278 277 277 277 277 277 277 277 277 277 277 277 277 277 277 277 277 276 276 275 275 274 274 273 272 272 271 270 268 267 266 266 265 264 263 262 262 261 260 259 258 257 256 256 257 258 257 257 256 255
293 293 293 292 291 291 290 289 288 287 286 285 284 283 283 283 284 284 283 283 283 283 283 282 282 282 282 282 281 281 281 281 281 281 281 281 281 281 280 280 280 279 279 278 278 278 277 277 277 276 276 276 276 275 275 275 274 273 273 272 271 271 270 269 268 267 266 265 264 263 262 262 261 260 259 259 258 257 256 256 257 258 258 257 257
292 292 292 292 291 291 290 289 288 287 286 286 285 285 285 284 284 284 283 283 283 282 282 282 282 282 282 282 282 281 281 281 281 281 281 281 281 281 281 280 280 280 279 279 278 277 277 276 276 276 275 275 275 275 275 274 274 273 273 272 271 270 269 268 268 267 266 266 265 264 263 262 262 261 261 260 259 259 258 257 257 258 259 259 258
292 292 292 292 292 291 291 290 289 288 287 287 286 286 285 285 284 284 283 282 282 282 282 282 282 281 281 281 281 281 280 280 280 279 279 279 279 279 279 279 279 279 279 279 278 278 277 277 276 276 275 275 274 274 274 274 273 273 273 272 271 271 270 269 268 267 267 266 265 265 264 263 263 262 262 262 261 261 260 259 258 258 258 259 259
293 293 293 293 292 292 290 289 289 288 288 287 287 287 286 286 286 285 284 284 284 284 283 283 282 282 282 281 281 281 281 280 280 280 279 279 279 279 279 279 279 279 279 279 279 279 278 278 277 276 275 275 274 273 273 272 272 272 272 272 271 271 271 270 269 268 268 267 266 266 265 265 264 264 263 263 262 261 261 260 259 258 258 258 258
293 293 293 292 292 291 290 290 289 289 289 289 289 289 288 288 288 287 287 287 286 286 285 285 284 284 283 283 282 282 282 282 281 281 281 280 280 280 279 279 279 279 279 279 278 278 278 277 276 276 275 274 274 273 273 272 272 271 271 271 271 271 270 270 269 268 268 267 267 266 266 266 265 265 264 264 263 262 262 261 259 258 258 258 258
293 292 292 291 291 290 290 290 290 290 290 290 291 290 290 289 289 289 288 288 288 287 287 287 286 286 285 285 285 284 283 283 282 282 281 281 280 280 279 279 278 278 277 277 276 276 276 276 275 275 275 274 274 274 273 272 272 271 271 270 270 270 269 269 268 268 267 267 267 266 266 266 265 265 264 264 263 263 262 261 260 259 258 257 257
292 292 291 291 291 291 292 292 292 292 292 292 292 292 291 291 291 291 291 290 290 290 289 289 288 287 287 286 285 285 284 283 282 281 281 280 279 278 278 277 276 276 275 275 274 274 274 274 274 274 274 273 273 273 273 272 272 271 271 270 269 268 268 268 268 267 267 267 267 267 267 266 266 265 265 264 264 263 262 261 260 259 258 257 256
293 293 293 293 293 293 293 294 294 294 294 295 294 294 294 294 293 293 293 292 292 291 290 289 289 288 287 286 285 285 284 283 282 281 280 279 278 277 277 276 275 275 274 274 273 273 273 273 273 272 272 272 272 272 272 272 272 271 271 270 270 269 268 268 268 268 268 268 268 267 267 267 266 266 265 265 264 263 263 262 260 259 258 257 256
295 295 295 295 296 296 296 296 296 296 296 296 296 295 295 294 294 293 293 292 292 291 291 291 290 289 289 288 287 286 285 284 283 282 281 280 279 278 277 276 276 275 274 274 273 273 273 273 273 273 272 272 272 272 272 272 272 272 271 271 270 270 269 269 268 268 268 268 268 268 268 268 267 267 266 265 265 264 263 261 260 258 257 255 255
297 298 298 298 298 298 298 297 297 296 296 296 295 295 295 295 294 294 294 294 294 293 293 292 291 291 290 289 289 288 287 286 285 284 283 282 281 280 279 278 277 276 276 275 274 274 274 274 273 273 273 273 273 272 272 272 272 271 271 271 270 270 270 270 269 268 268 268 268 268 268 268 268 268 267 266 265 264 263 261 259 257 255 253 252
299 299 299 298 297 297 297 296 296 296 296 296 296 296 296 296 296 296 296 296 295 295 294 293 293 292 291 291 290 289 288 287 287 286 285 284 283 281 281 280 279 278 277 276 275 275 274 274 274 273 273 273 272 272 272 272 271 271 271 271 271 271 271 270 270 270 269 269 269 269 269 269 268 268 267 267 266 264 262 261 258 256 254 252 250
298 297 297 296 296 297 297 297 297 297 297 297 297 297 297 297 297 297 297 296 296 296 295 295 294 294 293 292 291 290 290 289 288 287 286 285 284 283 282 281 280 279 278 277 276 275 275 274 274 273 273 272 272 272 271 271 271 271 271 270 270 270 270 270 270 270 270 269 269 269 269 268 268 267 267 267 266 265 263 261 259 256 253 251 249
297 297 296 297 297 297 297 297 297 298 298 298 298 298 298 298 298 298 297 297 297 296 296 295 295 294 293 293 292 291 290 289 289 288 287 287 286 285 284 283 282 281 280 279 278 277 277 276 275 274 274 273 272 272 271 271 271 270 270 270 270 270 270 270 270 270 270 270 269 269 268 268 267 267 267 266 265 264 263 261 259 256 254 251 248
297 297 297 297 297 298 298 298 298 298 299 299 299 299 299 298 298 298 298 297 297 296 296 295 295 294 293 293 292 292 291 291 290 290 289 288 288 287 286 285 284 283 282 281 280 279 278 277 276 275 274 273 273 272 272 271 271 271 270 270 270 270 270 270 270 270 270 269 269 268 267 267 267 266 266 265 264 263 261 259 257 255 253 251 248
298 298 298 299 299 299 299 299 299 299 300 299 299 299 299 299 298 298 298 297 297 296 296 296 296 295 295 294 294 294 293 292 292 291 290 288 287 286 285 284 283 282 281 280 279 278 277 277 276 275 274 273 272 272 272 271 271 271 270 270 270 270 270 270 270 270 270 269 268 268 267 267 266 266 265 264 262 261 259 257 256 254 252 250 248
299 299 300 300 299 299 300 300 300 300 299 299 299 299 298 298 298 298 298 297 297 298 297 297 297 297 296 295 295 294 293 293 292 290 289 288 287 286 285 284 283 282 281 280 279 278 277 276 275 275 274 273 272 272 271 271 270 270 270 269 270 270 270 270 270 269 269 268 268 267 267 267 266 265 264 262 261 259 257 256 254 252 250 249 247
299 299 299 299 299 299 299 299 299 299 298 298 298 298 298 298 298 298 299 299 299 299 298 298 297 296 295 295 295 294 294 293 292 291 291 290 289 287 286 285 284 283 282 281 280 278 277 276 275 275 274 274 273 272 271 271 270 269 269 269 269 269 269 269 269 268 268 268 267 267 267 266 265 264 263 261 259 257 255 253 251 250 248 247 245
299 299 299 299 299 298 298 298 298 298 298 298 298 299 299 299 299 299 299 299 298 298 297 297 296 295 295 295 295 295 295 294 294 293 292 292 290 289 288 287 286 285 284 283 282 280 278 277 276 275 275 275 274 273 272 271 270 269 269 268 268 269 268 268 267 267 267 267 266 266 266 265 264 263 261 259 257 255 253 251 249 247 246 244 242
298 298 298 298 298 298 298 299 299 299 299 299 300 300 300 300 299 299 299 298 297 297 296 296 296 296 297 297 297 297 296 296 296 295 294 293 292 290 289 288 287 287 286 285 284 282 281 279 278 277 276 276 275 274 274 273 271 270 269 269 269 268 268 267 267 267 266 266 266 265 264 263 262 261 259 257 255 253 251 249 247 245 243 241 240
298 298 298 298 298 299 299 299 300 300 300 300 300 299 299 299 299 299 298 298 297 297 297 297 298 298 299 299 298 298 298 297 296 296 294 293 292 291 290 289 289 288 287 286 284 283 282 281 279 279 278 277 276 276 275 274 273 271 271 270 269 268 268 267 267 266 266 265 265 264 263 262 261 259 257 255 253 251 249 247 245 243 241 240 239
299 299 299 299 299 299 300 300 300 300 300 299 299 299 299 299 299 299 299 299 298 299 299 299 299 300 300 299 299 298 298 297 296 295 294 293 292 291 291 290 289 288 287 285 284 283 282 281 280 279 278 277 277 276 275 275 274 273 272 272 270 269 268 267 266 266 266 265 265 264 263 261 259 258 256 254 252 250 248 246 244 242 241 239 238
299 299 299 299 299 300 300 300 300 299 299 299 299 299 299 300 300 300 300 300 299 300 300 300 301 301 300 300 300 299 299 297 296 295 294 293 292 291 291 290 289 288 286 285 284 283 282 281 280 279 278 278 277 276 275 274 274 274 273 272 270 269 268 267 266 266 266 266 265 263 262 260 259 257 255 253 251 248 246 244 243 241 239 238 237
299 299 299 299 299 299 299 299 299 299 299 299 299 300 300 300 300 300 300 300 300 300 301 302 302 302 301 301 301 300 299 298 297 296 295 294 293 292 291 290 289 287 286 285 284 283 282 281 280 279 278 277 277 276 275 275 274 274 272 271 270 269 268 267 267 266 266 265 264 263 261 260 258 256 254 251 249 246 244 242 241 240 239 237 236
299 299 299 299 299 299 299 299 299 299 299 300 300 300 301 301 301 301 301 301 301 302 303 303 303 302 302 302 302 301 300 299 298 297 296 294 293 292 290 289 288 287 285 284 283 282 281 280 279 278 277 277 276 275 275 275 275 274 272 271 270 269 268 267 267 267 266 265 264 262 261 259 257 255 252 249 246 244 242 241 239 238 238 237 236
298 298 298 298 299 299 300 300 300 301 301 301 302 302 302 302 302 303 302 303 303 304 304 304 304 303 303 303 302 301 300 300 299 297 296 295 293 292 291 289 288 286 285 284 283 282 281 280 279 278 277 276 275 275 275 275 274 273 272 271 269 268 268 267 267 267 266 264 263 262 260 259 257 254 251 248 245 243 241 240 238 237 236 236 235
298 298 299 299 300 301 301 302 302 302 303 303 303 303 303 304 304 304 304 304 305 305 304 304 304 304 304 303 302 301 300 299 298 297 296 295 294 293 292 290 288 287 285 284 283 282 281 280 279 278 277 276 275 275 275 274 273 271 271 270 268 267 267 268 267 267 265 264 263 262 260 258 255 252 249 247 244 242 241 239 237 236 235 234 234
299 300 301 301 302 303 303 303 303 303 304 304 304 304 304 304 304 304 304 304 304 304 304 304 305 304 304 303 302 301 300 299 298 297 296 295 294 293 292 291 289 287 286 284 283 282 281 280 279 278 277 276 275 275 275 273 272 271 270 268 267 267 267 267 267 266 265 263 262 261 259 256 253 251 248 246 244 243 241 239 237 235 234 233 233
302 303 303 304 304 304 304 304 304 304 304 304 304 304 304 303 303 304 304 305 305 305 305 306 305 304 303 303 302 301 300 299 298 298 296 295 295 294 292 291 290 288 286 285 283 282 280 279 279 278 277 276 275 274 273 272 270 270 269 267 266 266 266 266 266 265 264 262 261 259 257 254 251 249 247 245 244 242 240 238 237 235 233 232 232
304 304 305 304 304 304 304 304 304 304 304 304 304 303 303 304 304 305 306 306 306 306 307 306 305 304 304 303 302 301 301 300 299 298 297 296 295 294 293 292 290 289 287 285 284 282 280 279 278 277 276 275 275 273 272 270 269 269 268 267 266 266 266 265 264 263 262 261 259 257 254 252 250 248 246 244 243 241 239 237 236 234 233 232 231
304 304 304 304 304 304 304 304 304 304 304 304 304 304 305 305 306 307 307 307 307 307 307 306 305 305 304 303 303 302 301 300 300 298 297 296 295 294 293 292 291 289 287 286 284 283 281 279 277 276 275 274 273 272 270 269 269 268 267 266 265 265 265 264 262 261 260 259 257 255 253 251 249 247 245 243 241 239 238 236 235 233 232 231 230
303 304 304 304 304 304 304 304 304 304 305 305 306 306 306 307 308 308 308 308 308 308 307 306 305 305 305 304 303 302 302 301 300 299 298 297 296 294 294 293 291 289 287 286 284 283 281 279 277 276 274 273 272 270 269 268 267 266 266 265 264 264 264 262 260 259 258 257 255 253 252 250 248 246 243 241 239 237 236 234 233 232 231 230 229
304 304 305 305 304 304 304 304 305 306 307 307 307 308 308 309 309 309 309 309 309 308 307 307 306 306 305 305 304 304 303 302 302 300 299 298 296 295 294 293 291 289 287 285 284 282 280 279 277 275 273 272 270 269 268 267 266 265 265 264 264 263 262 260 258 256 256 255 253 252 251 249 247 245 242 239 237 235 234 233 232 232 231 229 228
305 305 305 305 305 305 306 307 308 308 308 308 308 309 309 309 310 310 310 309 309 308 308 307 307 307 307 306 306 305 305 304 303 302 300 299 297 295 294 293 291 288 287 285 284 282 280 278 276 274 272 270 269 268 267 266 266 265 264 264 263 262 261 258 256 255 255 254 252 250 249 247 245 244 241 238 236 233 232 231 231 230 229 227 226
306 306 306 306 307 307 308 308 309 309 309 309 309 309 310 310 310 310 310 310 309 309 309 309 309 309 308 308 307 307 306 306 305 303 302 300 298 296 295 293 290 288 286 284 283 282 280 277 275 273 271 269 268 267 267 266 266 265 264 263 262 260 258 257 255 253 253 252 250 248 247 245 244 242 240 237 234 232 231 230 229 228 227 226 225
307 307 307 308 308 308 308 309 309 310 310 310 310 310 310 311 311 311 311 310 310 310 310 310 310 309 309 309 308 308 308 307 306 305 304 301 298 297 296 294 291 288 286 284 283 281 279 277 274 272 270 268 267 266 266 265 265 264 263 261 260 258 257 255 253 251 250 250 249 246 245 243 241 239 237 236 233 231 230 229 228 226 226 225 225
308 308 309 309 309 309 309 310 310 310 311 311 311 311 312 312 312 312 311 311 311 311 311 310 310 310 310 309 309 308 308 308 307 306 304 302 299 297 296 294 291 289 287 285 283 281 278 276 274 271 269 268 266 265 264 264 263 262 261 259 258 257 255 254 252 249 248 248 247 245 243 241 239 237 235 234 232 230 227 226 225 224 224 224 223
309 310 310 310 310 310 310 310 311 311 312 312 312 312 312 312 312 312 312 311 311 311 311 311 311 311 310 310 309 308 308 307 307 306 305 303 300 298 297 295 292 289 287 285 283 281 278 275 273 271 269 267 265 264 263 262 261 260 259 258 257 256 254 252 251 248 246 246 246 244 241 238 237 235 233 232 231 229 227 225 224 223 222 222 222
310 310 311 311 311 311 311 311 312 312 313 313 313 313 313 313 313 313 313 313 313 312 312 311 311 311 310 309 309 308 308 307 307 307 306 304 300 297 297 295 293 290 288 285 283 280 277 275 272 270 268 266 264 263 261 260 260 259 258 257 255 254 252 251 249 247 245 244 244 242 239 236 235 234 232 230 230 229 227 226 225 224 223 222 222
311 311 312 312 312 312 312 313 313 313 313 313 313 313 313 314 314 314 314 314 314 313 312 311 311 310 309 309 308 308 307 307 307 306 306 305 301 298 296 295 293 291 288 285 282 279 276 274 272 270 268 266 264 262 260 258 258 257 256 255 253 251 250 249 248 246 244 243 242 241 238 235 233 233 231 229 229 228 227 226 226 225 224 224 224
313 313 313 313 313 313 314 314 314 314 313 313 313 314 314 315 315 315 315 315 314 313 312 311 311 310 310 309 309 308 308 307 307 306 305 305 302 299 297 295 293 291 288 285 282 279 276 274 273 271 269 267 264 262 260 258 257 256 255 254 252 250 248 246 246 245 243 242 242 240 238 235 233 232 230 229 228 228 227 226 226 225 224 224 224
314 315 315 315 315 315 315 315 315 314 315 315 315 316 316 316 316 316 316 315 314 313 312 311 311 311 311 310 309 309 308 308 307 306 305 304 302 299 297 296 294 291 288 285 282 279 276 274 273 271 268 266 264 262 260 258 257 255 254 252 251 249 246 245 244 243 242 241 241 240 238 235 234 233 231 229 229 228 228 227 226 225 224 224 223
316 317 317 317 316 316 316 316 316 316 317 317 318 318 318 317 317 316 316 315 314 313 312 312 312 312 311 311 310 310 309 309 308 307 306 304 303 299 297 296 295 292 288 284 282 279 277 274 272 269 267 265 263 261 259 256 254 253 252 251 249 247 245 244 243 242 241 240 239 238 237 235 234 233 232 231 230 230 229 228 226 225 224 224 222